Terminal Aerodrome Forecast
Issued by NWS Memphis, TN

Home | Current Version | Previous Version | Text Only | Print | Product List | Glossary On
Versions: 1 2 3 4 5 6 7 8 9 10 11 12 13 14 15 16 17 18 19 20 21 22 23 24 25 26 27 28 29 30 31 32 33 34
000
FTUS44 KMEG 291326 AAA
TAFMEM
TAF AMD
KMEM 291326Z 2913/3012 22008KT P6SM OVC015
     FM291600 24008KT P6SM OVC025
     FM291800 25008KT P6SM BKN035
     FM292200 21005KT P6SM VCTS FEW040CB BKN050
     FM300100 20005KT P6SM BKN050
     FM300600 20005KT P6SM BKN250=

USA.gov is the U.S. government's official web portal to all federal, state and local government web resources and services.